Total_Precipitation_Accumulation
1.50 1.68 1.64 1.49 1.46 1.56 1.49 1.47 1.60 1.66 1.66 1.70 1.68 1.63 1.60 1.69 1.85 2.01 2.00 2.11 2.21 2.24 2.22 2.16 2.08 2.10 2.16 2.06 2.12 2.22 2.37 2.53 2.33 2.06 1.93 1.85 1.81 1.72 1.61 1.36 1.20 1.12 1.00
1.77 1.99 1.98 1.68 1.52 1.44 1.29 1.29 1.48 1.66 1.69 1.66 1.64 1.59 1.53 1.61 1.84 1.99 2.09 2.31 2.40 2.30 2.21 2.15 2.04 2.12 2.21 2.14 2.15 2.10 2.15 2.40 2.35 2.20 2.14 2.16 2.06 1.88 1.80 1.60 1.29 1.15 1.13
1.58 1.82 1.77 1.53 1.37 1.32 1.31 1.35 1.51 1.63 1.62 1.58 1.60 1.64 1.74 1.86 2.02 2.15 2.25 2.39 2.37 2.25 2.23 2.14 2.02 2.05 2.04 2.11 2.15 2.11 2.06 2.10 2.25 2.20 2.13 2.23 2.16 1.95 1.83 1.66 1.52 1.58 1.42
1.14 1.40 1.41 1.29 1.23 1.25 1.32 1.34 1.33 1.35 1.41 1.46 1.64 1.86 2.02 2.13 2.21 2.27 2.27 2.23 2.21 2.10 2.01 1.91 1.87 1.95 2.00 2.02 1.95 1.92 1.93 2.00 2.07 2.08 2.09 2.19 2.23 2.16 2.01 1.87 1.84 1.81 1.66
1.04 1.25 1.22 1.20 1.20 1.17 1.17 1.24 1.30 1.36 1.43 1.62 1.78 1.88 1.89 1.93 2.00 2.13 2.13 2.08 2.03 1.93 1.82 1.63 1.59 1.78 1.86 1.86 1.73 1.80 1.86 1.89 1.91 1.99 2.04 2.14 2.20 2.32 2.13 1.89 1.85 1.92 1.84
0.93 1.14 1.15 1.13 1.11 1.05 1.09 1.19 1.36 1.46 1.61 1.77 1.80 1.77 1.71 1.47 1.54 1.65 1.72 1.75 1.74 1.68 1.56 1.49 1.50 1.54 1.48 1.45 1.44 1.43 1.50 1.59 1.77 2.00 2.09 2.10 2.08 2.18 2.26 2.17 2.10 2.06 2.02
0.91 1.06 1.16 1.14 1.15 1.13 1.12 1.29 1.47 1.63 1.77 1.88 1.86 1.76 1.64 1.58 1.47 1.34 1.33 1.38 1.48 1.50 1.51 1.57 1.38 1.25 1.34 1.32 1.36 1.31 1.24 1.29 1.39 1.64 1.86 1.90 2.00 2.01 2.27 2.30 2.34 2.41 2.39
0.95 1.14 1.22 1.17 1.22 1.32 1.35 1.44 1.66 1.88 2.01 2.01 1.94 1.84 1.80 1.75 1.64 1.41 1.30 1.25 1.41 1.47 1.47 1.51 1.50 1.43 1.42 1.48 1.49 1.40 1.27 1.22 1.20 1.19 1.38 1.65 1.87 2.09 2.16 2.22 2.32 2.40 2.40
0.97 1.12 1.21 1.28 1.39 1.45 1.51 1.68 1.89 2.06 2.07 2.00 2.03 1.99 1.96 1.98 1.80 1.46 1.29 1.29 1.49 1.53 1.52 1.50 1.48 1.44 1.48 1.35 1.29 1.30 1.29 1.26 1.10 1.11 1.18 1.38 1.55 1.62 1.83 2.05 2.24 2.20 2.13
1.28 1.33 1.51 1.70 1.88 1.98 2.04 2.10 2.13 2.18 2.08 2.04 2.04 2.06 2.02 2.02 1.91 1.44 1.23 1.26 1.46 1.51 1.58 1.56 1.46 1.33 1.30 1.17 1.15 1.28 1.27 1.25 1.25 1.18 1.09 1.11 1.18 1.30 1.37 1.43 1.69 1.89 1.81
1.55 1.62 1.82 2.14 2.33 2.33 2.33 2.28 2.21 2.21 2.21 2.18 2.11 2.09 2.06 2.00 1.92 1.51 1.32 1.35 1.51 1.61 1.61 1.58 1.52 1.38 1.18 1.12 1.06 1.10 1.14 1.13 1.19 1.21 1.17 1.12 1.19 1.29 1.24 1.19 1.32 1.51 1.56
1.74 1.92 2.13 2.38 2.36 2.28 2.45 2.39 2.36 2.41 2.37 2.27 2.20 2.13 2.12 2.07 1.91 1.62 1.38 1.44 1.58 1.70 1.77 1.73 1.63 1.41 1.17 1.07 0.98 0.95 0.91 0.85 0.90 1.03 1.06 1.01 1.05 1.16 1.22 1.19 1.22 1.26 1.31
1.95 2.07 2.16 2.27 2.46 2.61 2.67 2.59 2.51 2.48 2.42 2.25 2.15 2.02 1.96 2.01 2.02 1.60 1.34 1.40 1.49 1.53 1.70 1.73 1.46 1.23 1.08 0.93 0.89 0.88 0.78 0.73 0.84 0.91 0.91 0.90 0.89 0.98 1.18 1.29 1.31 1.31 1.26
1.87 1.83 1.91 2.08 2.24 2.33 2.57 2.63 2.54 2.39 2.34 2.28 2.16 2.02 1.95 1.98 1.98 1.65 1.33 1.31 1.38 1.37 1.46 1.52 1.39 1.21 1.07 0.96 0.90 0.86 0.80 0.81 0.90 0.92 0.93 0.96 0.96 1.01 1.09 1.17 1.26 1.29 1.26
1.80 1.71 1.71 1.72 1.83 1.93 2.04 2.16 2.17 2.18 2.02 1.91 1.79 1.73 1.73 1.78 1.75 1.50 1.32 1.32 1.43 1.49 1.45 1.47 1.48 1.35 1.21 1.10 1.07 1.10 1.10 1.05 0.98 0.97 1.00 1.02 0.99 0.99 1.03 1.10 1.17 1.20 1.14
1.66 1.58 1.58 1.58 1.64 1.72 1.76 1.72 1.57 1.52 1.37 1.23 1.19 1.14 1.16 1.21 1.31 1.16 1.05 1.14 1.29 1.35 1.28 1.31 1.42 1.41 1.33 1.25 1.19 1.19 1.17 1.11 1.04 1.04 1.03 1.01 0.98 0.95 0.97 1.02 1.06 1.08 1.05
1.65 1.50 1.41 1.36 1.41 1.45 1.53 1.66 1.72 1.52 1.30 1.12 1.00 0.87 0.85 0.94 1.03 1.03 0.98 1.01 1.09 1.12 1.09 1.15 1.25 1.30 1.26 1.22 1.17 1.14 1.09 1.10 1.11 1.06 1.03 1.03 1.01 0.96 0.94 0.97 0.99 1.05 1.03
1.55 1.44 1.34 1.33 1.37 1.40 1.46 1.57 1.69 1.69 1.44 1.11 0.96 0.84 0.72 0.70 0.73 0.77 0.78 0.82 0.91 0.94 0.95 1.02 1.08 1.12 1.13 1.14 1.13 1.12 1.08 1.09 1.08 1.06 1.02 1.01 1.01 0.97 0.97 0.98 0.95 0.97 1.02
1.37 1.29 1.23 1.28 1.30 1.28 1.33 1.38 1.44 1.48 1.38 1.20 1.01 0.82 0.67 0.56 0.57 0.62 0.61 0.68 0.84 0.88 0.88 0.92 0.93 0.94 0.98 1.02 1.02 1.06 1.06 1.02 1.02 1.05 1.02 0.98 1.01 1.02 1.02 1.01 1.00 1.01 1.02
1.25 1.09 1.01 1.08 1.13 1.12 1.16 1.20 1.22 1.27 1.25 1.18 1.05 0.81 0.61 0.55 0.62 0.69 0.69 0.78 0.87 0.87 0.83 0.86 0.82 0.81 0.86 0.93 0.98 1.03 1.03 1.04 1.07 1.04 1.01 1.00 0.99 1.00 0.97 0.98 1.01 1.03 1.03
1.18 1.00 0.78 0.73 0.83 0.89 0.98 1.05 1.08 1.09 1.11 1.09 0.94 0.68 0.49 0.45 0.58 0.72 0.82 0.85 0.85 0.84 0.78 0.74 0.70 0.72 0.78 0.84 0.88 0.91 0.96 1.03 1.02 1.01 1.05 1.02 0.98 0.98 0.96 0.97 0.96 0.98 1.00
1.06 0.96 0.80 0.70 0.73 0.78 0.86 0.96 0.97 0.94 0.93 0.91 0.80 0.61 0.45 0.41 0.54 0.67 0.73 0.73 0.71 0.73 0.70 0.66 0.65 0.69 0.72 0.75 0.80 0.86 0.91 0.94 0.95 0.98 1.00 1.00 0.99 0.97 0.97 1.01 1.01 1.00 1.01
0.99 0.91 0.78 0.71 0.73 0.72 0.77 0.87 0.88 0.83 0.79 0.74 0.66 0.58 0.49 0.51 0.58 0.66 0.68 0.66 0.66 0.65 0.63 0.62 0.60 0.59 0.65 0.68 0.70 0.76 0.83 0.83 0.84 0.87 0.93 0.98 0.98 0.99 1.03 1.04 1.00 0.96 0.97
0.90 0.85 0.73 0.68 0.70 0.74 0.74 0.76 0.73 0.69 0.66 0.61 0.57 0.55 0.54 0.57 0.60 0.60 0.62 0.62 0.61 0.57 0.54 0.55 0.56 0.57 0.60 0.64 0.64 0.64 0.67 0.69 0.70 0.74 0.79 0.85 0.88 0.95 1.02 1.05 1.01 0.97 1.03
0.86 0.86 0.76 0.66 0.64 0.67 0.68 0.69 0.66 0.64 0.59 0.54 0.52 0.52 0.54 0.55 0.56 0.60 0.59 0.56 0.52 0.51 0.47 0.49 0.55 0.55 0.51 0.52 0.52 0.52 0.56 0.55 0.54 0.61 0.70 0.79 0.81 0.88 1.00 1.04 1.04 1.04 1.11
0.78 0.80 0.74 0.65 0.60 0.60 0.62 0.68 0.70 0.63 0.57 0.50 0.49 0.51 0.48 0.45 0.45 0.47 0.47 0.45 0.44 0.45 0.45 0.47 0.49 0.50 0.48 0.46 0.44 0.45 0.43 0.40 0.42 0.51 0.56 0.64 0.75 0.82 0.90 0.96 0.95 1.03 1.10